Time,TemperatureF,DewpointF,PressureIn,WindDirection,WindDirectionDegrees,WindSpeedMPH,WindSpeedGustMPH,Humidity,HourlyPrecipIn,Conditions,Clouds,dailyrainin,SoftwareType,DateUTC
2013-06-23 00:00:00,65.7,56.0,30.14,SE,135,0.0,-999.0,71,-99.99,,,0.00,Acu-Link.com,2013-06-23 04:00:00,
2013-06-23 00:15:00,65.5,55.8,30.14,ESE,112,1.7,-999.0,71,-99.99,,,0.00,Acu-Link.com,2013-06-23 04:15:00,
2013-06-23 00:30:00,65.7,56.0,30.14,SSE,157,0.0,-999.0,71,-99.99,,,0.00,Acu-Link.com,2013-06-23 04:30:00,
2013-06-23 00:45:00,65.5,56.2,30.14,SE,135,0.0,-999.0,72,-99.99,,,0.00,Acu-Link.com,2013-06-23 04:45:00,
2013-06-23 01:00:00,64.8,55.6,30.15,West,270,0.0,-999.0,72,-99.99,,,0.00,Acu-Link.com,2013-06-23 05:00:00,
2013-06-23 01:15:00,64.4,55.9,30.15,SW,225,0.0,-999.0,74,-99.99,,,0.00,Acu-Link.com,2013-06-23 05:15:00,
2013-06-23 01:31:00,63.9,56.2,30.15,NNW,337,0.0,-999.0,76,-99.99,,,0.00,Acu-Link.com,2013-06-23 05:31:00,
2013-06-23 01:46:00,63.3,56.0,30.14,NNW,337,0.0,-999.0,77,-99.99,,,0.00,Acu-Link.com,2013-06-23 05:46:00,
2013-06-23 02:01:00,63.0,56.0,30.15,NW,315,0.0,-999.0,78,-99.99,,,0.00,Acu-Link.com,2013-06-23 06:01:00,
2013-06-23 02:16:00,62.6,56.0,30.15,NNW,337,0.0,-999.0,79,-99.99,,,0.00,Acu-Link.com,2013-06-23 06:16:00,
2013-06-23 02:31:00,62.2,55.6,30.15,NNW,337,0.0,-999.0,79,-99.99,,,0.00,Acu-Link.com,2013-06-23 06:31:00,
2013-06-23 02:47:00,62.2,56.3,30.15,NNW,337,0.0,-999.0,81,-99.99,,,0.00,Acu-Link.com,2013-06-23 06:47:00,
2013-06-23 03:02:00,61.9,56.0,30.14,NNE,22,0.0,-999.0,81,-99.99,,,0.00,Acu-Link.com,2013-06-23 07:02:00,
2013-06-23 03:17:00,61.9,56.3,30.13,ENE,67,0.0,-999.0,82,-99.99,,,0.00,Acu-Link.com,2013-06-23 07:17:00,
2013-06-23 03:32:00,61.7,56.1,30.13,NW,315,0.0,-999.0,82,-99.99,,,0.00,Acu-Link.com,2013-06-23 07:32:00,
2013-06-23 03:47:00,61.7,56.8,30.13,WNW,292,0.0,-999.0,84,-99.99,,,0.00,Acu-Link.com,2013-06-23 07:47:00,
2013-06-23 04:03:00,62.2,57.6,30.13,NNW,337,0.0,-999.0,85,-99.99,,,0.00,Acu-Link.com,2013-06-23 08:03:00,
2013-06-23 04:18:00,62.4,57.8,30.13,NNW,337,0.0,-999.0,85,-99.99,,,0.00,Acu-Link.com,2013-06-23 08:18:00,
2013-06-23 04:34:00,63.0,58.4,30.13,South,180,0.0,-999.0,85,-99.99,,,0.00,Acu-Link.com,2013-06-23 08:34:00,
2013-06-23 04:49:00,63.1,58.5,30.13,NW,315,0.0,-999.0,85,-99.99,,,0.00,Acu-Link.com,2013-06-23 08:49:00,
2013-06-23 05:04:00,63.5,58.9,30.13,NW,315,0.0,-999.0,85,-99.99,,,0.00,Acu-Link.com,2013-06-23 09:04:00,
2013-06-23 05:19:00,63.9,59.0,30.13,NW,315,0.0,-999.0,84,-99.99,,,0.00,Acu-Link.com,2013-06-23 09:19:00,
2013-06-23 05:34:00,64.2,59.3,30.14,NNW,337,0.0,-999.0,84,-99.99,,,0.00,Acu-Link.com,2013-06-23 09:34:00,
2013-06-23 05:49:00,64.6,59.7,30.14,West,270,0.0,-999.0,84,-99.99,,,0.00,Acu-Link.com,2013-06-23 09:49:00,
2013-06-23 06:05:00,64.9,59.9,30.14,West,270,0.0,-999.0,84,-99.99,,,0.00,Acu-Link.com,2013-06-23 10:05:00,
2013-06-23 06:20:00,65.7,60.4,30.15,NW,315,0.0,-999.0,83,-99.99,,,0.00,Acu-Link.com,2013-06-23 10:20:00,
2013-06-23 06:35:00,66.4,61.1,30.15,NW,315,0.0,-999.0,83,-99.99,,,0.00,Acu-Link.com,2013-06-23 10:35:00,
2013-06-23 06:50:00,67.3,62.0,30.15,West,270,0.0,-999.0,83,-99.99,,,0.00,Acu-Link.com,2013-06-23 10:50:00,
2013-06-23 07:06:00,68.5,62.4,30.16,West,270,0.0,-999.0,81,-99.99,,,0.00,Acu-Link.com,2013-06-23 11:06:00,
2013-06-23 07:21:00,70.0,62.4,30.16,ESE,112,1.1,-999.0,77,-99.99,,,0.00,Acu-Link.com,2013-06-23 11:21:00,
2013-06-23 07:36:00,71.6,63.2,30.16,ESE,112,0.0,-999.0,75,-99.99,,,0.00,Acu-Link.com,2013-06-23 11:36:00,
2013-06-23 07:51:00,73.2,64.0,30.16,NNW,337,0.0,-999.0,73,-99.99,,,0.00,Acu-Link.com,2013-06-23 11:51:00,
2013-06-23 08:07:00,75.6,65.1,30.16,SE,135,0.0,-999.0,70,-99.99,,,0.00,Acu-Link.com,2013-06-23 12:07:00,
2013-06-23 08:22:00,77.0,66.0,30.16,ESE,112,2.2,-999.0,69,-99.99,,,0.00,Acu-Link.com,2013-06-23 12:22:00,
2013-06-23 08:37:00,77.7,66.7,30.16,ESE,112,2.7,-999.0,69,-99.99,,,0.00,Acu-Link.com,2013-06-23 12:37:00,
2013-06-23 08:52:00,79.5,68.0,30.16,ENE,67,1.1,-999.0,68,-99.99,,,0.00,Acu-Link.com,2013-06-23 12:52:00,
2013-06-23 09:07:00,83.1,69.2,30.16,NNE,22,1.1,-999.0,63,-99.99,,,0.00,Acu-Link.com,2013-06-23 13:07:00,
2013-06-23 09:23:00,81.9,69.8,30.15,SW,225,2.2,-999.0,67,-99.99,,,0.00,Acu-Link.com,2013-06-23 13:23:00,
2013-06-23 09:38:00,81.1,69.1,30.14,South,180,3.7,-999.0,67,-99.99,,,0.00,Acu-Link.com,2013-06-23 13:38:00,
2013-06-23 09:53:00,82.6,70.1,30.14,South,180,4.2,-999.0,66,-99.99,,,0.00,Acu-Link.com,2013-06-23 13:53:00,
2013-06-23 10:08:00,82.6,69.6,30.14,SE,135,8.3,-999.0,65,-99.99,,,0.00,Acu-Link.com,2013-06-23 14:08:00,
2013-06-23 10:24:00,82.2,68.8,30.14,WNW,292,6.3,-999.0,64,-99.99,,,0.00,Acu-Link.com,2013-06-23 14:24:00,
2013-06-23 10:39:00,81.5,68.6,30.14,SSE,157,2.7,-999.0,65,-99.99,,,0.00,Acu-Link.com,2013-06-23 14:39:00,
2013-06-23 10:54:00,82.9,69.0,30.13,West,270,3.2,-999.0,63,-99.99,,,0.00,Acu-Link.com,2013-06-23 14:54:00,
2013-06-23 11:09:00,83.5,68.6,30.13,South,180,4.2,-999.0,61,-99.99,,,0.00,Acu-Link.com,2013-06-23 15:09:00,
2013-06-23 11:25:00,83.8,68.4,30.13,South,180,4.7,-999.0,60,-99.99,,,0.00,Acu-Link.com,2013-06-23 15:25:00,
2013-06-23 11:40:00,84.6,68.7,30.12,South,180,5.8,-999.0,59,-99.99,,,0.00,Acu-Link.com,2013-06-23 15:40:00,
2013-06-23 12:10:00,82.8,68.9,30.11,ESE,112,6.3,-999.0,63,-99.99,,,0.00,Acu-Link.com,2013-06-23 16:10:00,
2013-06-23 12:26:00,78.6,70.8,30.12,SSW,202,1.1,-999.0,77,-99.99,,,0.01,Acu-Link.com,2013-06-23 16:26:00,
2013-06-23 12:41:00,78.1,71.0,30.10,SW,225,0.0,-999.0,79,-99.99,,,0.23,Acu-Link.com,2013-06-23 16:41:00,
2013-06-23 12:56:00,78.3,72.7,30.10,SSE,157,2.2,-999.0,83,-99.99,,,0.24,Acu-Link.com,2013-06-23 16:56:00,
2013-06-23 13:11:00,78.6,71.5,30.11,South,180,1.1,-999.0,79,-99.99,,,0.24,Acu-Link.com,2013-06-23 17:11:00,
2013-06-23 13:27:00,81.5,75.5,30.10,NNE,22,1.1,-999.0,82,-99.99,,,0.31,Acu-Link.com,2013-06-23 17:27:00,
2013-06-23 13:42:00,83.1,73.1,30.09,SE,135,4.7,-999.0,72,-99.99,,,0.31,Acu-Link.com,2013-06-23 17:42:00,
2013-06-23 13:57:00,84.4,72.7,30.09,South,180,4.7,-999.0,68,-99.99,,,0.31,Acu-Link.com,2013-06-23 17:57:00,
2013-06-23 14:12:00,82.6,71.4,30.08,SSW,202,2.7,-999.0,69,-99.99,,,0.31,Acu-Link.com,2013-06-23 18:12:00,
2013-06-23 14:27:00,83.3,71.2,30.07,South,180,3.7,-999.0,67,-99.99,,,0.31,Acu-Link.com,2013-06-23 18:27:00,
2013-06-23 14:43:00,85.3,71.2,30.07,ESE,112,4.2,-999.0,63,-99.99,,,0.31,Acu-Link.com,2013-06-23 18:43:00,
2013-06-23 14:58:00,84.2,69.7,30.06,ESE,112,6.8,-999.0,62,-99.99,,,0.31,Acu-Link.com,2013-06-23 18:58:00,
2013-06-23 15:13:00,83.1,69.2,30.06,NNE,22,6.8,-999.0,63,-99.99,,,0.31,Acu-Link.com,2013-06-23 19:13:00,
2013-06-23 15:29:00,82.9,69.0,30.05,ESE,112,8.3,-999.0,63,-99.99,,,0.31,Acu-Link.com,2013-06-23 19:29:00,
2013-06-23 15:44:00,83.7,68.8,30.05,South,180,7.3,-999.0,61,-99.99,,,0.31,Acu-Link.com,2013-06-23 19:44:00,
2013-06-23 15:59:00,83.3,70.3,30.05,ESE,112,3.7,-999.0,65,-99.99,,,0.31,Acu-Link.com,2013-06-23 19:59:00,
2013-06-23 16:14:00,84.7,69.7,30.04,West,270,9.4,-999.0,61,-99.99,,,0.31,Acu-Link.com,2013-06-23 20:14:00,
2013-06-23 16:29:00,82.9,68.0,30.04,SSE,157,2.7,-999.0,61,-99.99,,,0.31,Acu-Link.com,2013-06-23 20:29:00,
2013-06-23 16:45:00,82.0,67.2,30.04,SE,135,5.3,-999.0,61,-99.99,,,0.31,Acu-Link.com,2013-06-23 20:45:00,
2013-06-23 17:00:00,83.1,68.2,30.03,SW,225,5.8,-999.0,61,-99.99,,,0.31,Acu-Link.com,2013-06-23 21:00:00,
2013-06-23 17:15:00,84.2,67.8,30.03,ESE,112,3.2,-999.0,58,-99.99,,,0.31,Acu-Link.com,2013-06-23 21:15:00,
2013-06-23 17:30:00,86.2,68.1,30.03,WSW,247,4.7,-999.0,55,-99.99,,,0.31,Acu-Link.com,2013-06-23 21:30:00,
2013-06-23 17:45:00,86.7,69.1,30.03,WSW,247,2.2,-999.0,56,-99.99,,,0.31,Acu-Link.com,2013-06-23 21:45:00,
2013-06-23 18:01:00,84.0,67.6,30.03,West,270,4.7,-999.0,58,-99.99,,,0.31,Acu-Link.com,2013-06-23 22:01:00,
2013-06-23 18:16:00,85.3,67.8,30.02,WNW,292,2.7,-999.0,56,-99.99,,,0.31,Acu-Link.com,2013-06-23 22:16:00,
2013-06-23 18:31:00,83.7,67.8,30.02,West,270,2.2,-999.0,59,-99.99,,,0.31,Acu-Link.com,2013-06-23 22:31:00,
2013-06-23 18:46:00,84.9,67.9,30.02,NNE,22,2.2,-999.0,57,-99.99,,,0.31,Acu-Link.com,2013-06-23 22:46:00,
2013-06-23 19:01:00,82.9,68.0,30.02,West,270,4.2,-999.0,61,-99.99,,,0.31,Acu-Link.com,2013-06-23 23:01:00,
2013-06-23 19:17:00,82.6,67.8,30.02,West,270,2.2,-999.0,61,-99.99,,,0.31,Acu-Link.com,2013-06-23 23:17:00,
2013-06-23 19:32:00,83.1,67.8,30.03,SW,225,2.2,-999.0,60,-99.99,,,0.31,Acu-Link.com,2013-06-23 23:32:00,
2013-06-23 19:47:00,82.0,67.2,30.02,ESE,112,2.7,-999.0,61,-99.99,,,0.31,Acu-Link.com,2013-06-23 23:47:00,
2013-06-23 20:02:00,80.8,67.0,30.02,SSE,157,2.7,-999.0,63,-99.99,,,0.31,Acu-Link.com,2013-06-24 00:02:00,
2013-06-23 20:18:00,79.9,66.6,30.02,SW,225,0.0,-999.0,64,-99.99,,,0.31,Acu-Link.com,2013-06-24 00:18:00,
2013-06-23 20:33:00,79.3,67.8,30.03,SSE,157,0.0,-999.0,68,-99.99,,,0.31,Acu-Link.com,2013-06-24 00:33:00,
2013-06-23 20:48:00,78.6,68.8,30.04,SW,225,1.7,-999.0,72,-99.99,,,0.31,Acu-Link.com,2013-06-24 00:48:00,
2013-06-23 21:03:00,78.3,68.9,30.04,ESE,112,3.7,-999.0,73,-99.99,,,0.31,Acu-Link.com,2013-06-24 01:03:00,
2013-06-23 21:18:00,78.1,69.1,30.04,WNW,292,1.1,-999.0,74,-99.99,,,0.31,Acu-Link.com,2013-06-24 01:18:00,
2013-06-23 21:34:00,77.7,69.1,30.04,ESE,112,0.0,-999.0,75,-99.99,,,0.31,Acu-Link.com,2013-06-24 01:34:00,
2013-06-23 21:49:00,77.0,68.8,30.05,ESE,112,0.0,-999.0,76,-99.99,,,0.31,Acu-Link.com,2013-06-24 01:49:00,
2013-06-23 22:04:00,76.5,69.1,30.06,SE,135,0.0,-999.0,78,-99.99,,,0.31,Acu-Link.com,2013-06-24 02:04:00,
2013-06-23 22:19:00,75.9,68.9,30.06,South,180,2.2,-999.0,79,-99.99,,,0.31,Acu-Link.com,2013-06-24 02:19:00,
2013-06-23 22:34:00,75.4,68.8,30.06,SSE,157,0.0,-999.0,80,-99.99,,,0.31,Acu-Link.com,2013-06-24 02:34:00,
2013-06-23 22:50:00,75.0,68.8,30.06,West,270,0.0,-999.0,81,-99.99,,,0.31,Acu-Link.com,2013-06-24 02:50:00,
2013-06-23 23:05:00,74.7,68.8,30.07,SSE,157,0.0,-999.0,82,-99.99,,,0.31,Acu-Link.com,2013-06-24 03:05:00,
2013-06-23 23:20:00,74.3,68.4,30.06,ESE,112,1.1,-999.0,82,-99.99,,,0.31,Acu-Link.com,2013-06-24 03:20:00,
2013-06-23 23:35:00,73.8,68.3,30.07,SE,135,0.0,-999.0,83,-99.99,,,0.31,Acu-Link.com,2013-06-24 03:35:00,
2013-06-23 23:50:00,73.4,68.3,30.07,ESE,112,0.0,-999.0,84,-99.99,,,0.31,Acu-Link.com,2013-06-24 03:50:00,